Regional Weather Roundup
Issued by NWS

Home | Current Version | Previous Version | Graphics & Text | Print | Product List | Glossary On
Versions: 1 2 3 4 5 6 7 8 9 10 11 12 13 14 15 16 17 18 19 20 21 22 23 24 25 26 27 28 29 30 31 32 33 34 35 36 37 38 39 40 41 42 43 44 45 46 47 48 49 50
780
ASUS45 KBOU 190910
RWRCO

WEATHER ROUNDUP FOR COLORADO
NATIONAL WEATHER SERVICE DENVER/BOULDER CO
200 AM MST SUN NOV 19 2017

NOTE: "FAIR" INDICATES FEW OR NO CLOUDS BELOW 12000 FEET WITH NO
SIGNIFICANT WEATHER AND/OR OBSTRUCTIONS TO VISIBILITY.

COZ001>005-013-030-031-191000-
...NORTHWEST COLORADO...

CITY           SKY/WX    TMP DP  RH WIND       PRES   REMARKS
CRAIG          FAIR      11   6  81 SW5       30.36F WCI   3
HAYDEN         FAIR      16   9  74 E10       30.37S WCI   4
MEEKER         FAIR      16  10  77 MISG      30.36F
RABBIT EARS PA FAIR      18   7  62 W6        30.31R WCI   9
STEAMBOAT SPGS FAIR      10   8  88 CALM      30.36S
WALDEN         FAIR      10   1  67 SE8       30.32S WCI  -1
$$

COZ006>008-011-191000-
...WEST CENTRAL VALLEYS...

CITY           SKY/WX    TMP DP  RH WIND       PRES   REMARKS
GRAND JUNCTION FAIR      18  14  84 E5        30.39S WCI  11
MONTROSE       FAIR      21  16  81 S9        30.41F WCI  11
EAGLE          FAIR      15  12  88 E5        30.43S WCI   8
RIFLE          FAIR      20  16  84 CALM      30.41F
DELTA          FAIR      23  16  74 CALM      30.41F
NUCLA          FAIR      23  12  63 E9        30.41S WCI  13
$$

COZ017>023-064>068-191000-
...SOUTHWEST COLORADO...

CITY           SKY/WX    TMP DP  RH WIND       PRES   REMARKS
DURANGO        FAIR      17  11  77 N5        30.35F WCI  10
CORTEZ         FAIR      12   7  80 NE5       30.37F WCI   4
PAGOSA SPRINGS FAIR      24  15  70 CALM      30.36F
TELLURIDE      FAIR      23   4  45 SE6       30.38F WCI  15
WOLF CREEK PAS FAIR      23  -9  23 SW7       30.44F WCI  15
$$

COZ009-010-012-014-032>034-037-058>063-191000-
...CENTRAL COLORADO...

CITY           SKY/WX    TMP DP  RH WIND       PRES   REMARKS
ASPEN          FAIR      11   6  81 S5        30.34F WCI   3
BUENA VISTA    FAIR      19  10  67 NW6       30.33S WCI  11
COPPER MTN     FAIR      23   0  36 MISG      30.31F
BERTHOUD PASS  FAIR      12   3  67 NW39G47   30.24R WCI -12
COTTONWOOD PAS FAIR      32   1  27 NW6       30.31S WCI  26
GUNNISON       FAIR      11   6  81 CALM      30.44S
KREMMLING      FAIR      16  10  79 CALM      30.39F
LEADVILLE      FAIR       6   0  76 NE8       30.30F WCI  -7
MONARCH PASS   FAIR      16  -6  38 W32       30.44R WCI  -5
SALIDA         FAIR      26  10  52 N17G23    30.39S WCI  13
SUNLIGHT       FAIR      18   1  49 SW14      30.38S WCI   4
WILKERSON PASS FAIR      19  -4  35 SW12G20   30.34S WCI   7
$$

COZ069>075-191000-
...SAN LUIS VALLEY/SANGRE DE CRISTO MOUNTAINS...

CITY           SKY/WX    TMP DP  RH WIND       PRES   REMARKS
ALAMOSA        FAIR      11   6  81 CALM      30.37S
DEL NORTE      FAIR      22   8  54 W17       30.37S WCI   8
LA VETA PASS   FAIR      23   5  46 SW28G36     N/A  WCI   6
SAGUACHE       FAIR      19   3  49 N12       30.37F WCI   7
$$

COZ035-036-038>040-191000-
...NORTHERN COLORADO FRONT RANGE...

CITY           SKY/WX    TMP DP  RH WIND       PRES   REMARKS
DENVER INTL AP FAIR      25  15  66 S9        30.19F WCI  15
DMNS CITY PARK   N/A     29  17  61 E9        30.20S WCI  20
AURORA         PTCLDY    29  14  52 S9        30.20S WCI  21
FRONT RANGE AP FAIR      28  20  71 S6        30.20S WCI  21
ERIE MUNI ARPT FAIR      20  17  88 SW5       30.27S WCI  13
BOULDER MUN AP FAIR      30  18  59 NW3       30.21R
CENTENNIAL     FAIR      29  15  56 E7        30.20S WCI  22
BROOMFIELD     FAIR      32  19  59 CALM      30.21R
FORT COLLINS   FAIR      26  17  68 CALM      30.22S
LONGMONT       FAIR      24  18  78 W3        30.23S
$$

COZ041-046-047-076>085-087-088-191000-
...PIKES PEAK/PALMER DIVIDE AND SOUTHERN FOOTHILLS...

CITY           SKY/WX    TMP DP  RH WIND       PRES   REMARKS
COLO. SPRINGS  FAIR      24  18  77 N12       30.22F WCI  13
A. F. ACADEMY  FAIR      23  15  70 N7        30.21F WCI  15
SCHRIEVER AFB  FAIR      26  18  72 N7        30.23S WCI  18
CHEYENNE MTN   FAIR      36   7  30 NW5       30.16F
ELLICOTT       NOT AVBL
FALCON         FAIR      25  13  59 CALM      30.22S
FORT CARSON    FAIR      26  18  73 NW7       30.20F WCI  18
LIMON          FAIR      12   9  87 N5        30.23S WCI   4
MONUMENT HILL  FAIR      28   9  43 SW7       30.23S WCI  21
CANON CITY     FAIR      39  12  33 W20       30.21F
WALSENBURG     FAIR      41   7  24 W17       30.21F
TRINIDAD       FAIR      32  19  58 W12       30.24S WCI  23
$$

COZ042>045-048>051-090-091-191000-
...NORTHEAST COLORADO...

CITY           SKY/WX    TMP DP  RH WIND       PRES   REMARKS
GREELEY ARPT   FAIR      18  14  84 NW5       30.23S WCI  11
AKRON          FAIR      25  14  63 SW7       30.20F WCI  17
BURLINGTON     FAIR      18  11  74 SW7       30.25S WCI   9
WRAY           NOT AVBL
YUMA           FAIR      23  16  74 S9        30.22F WCI  13
STERLING       FAIR      19  14  79 SW7       30.21F WCI  10
HOLYOKE        FAIR      21  14  73 W9        30.23S WCI  11
FORT MORGAN    FAIR      23  15  70 W3        30.22S
$$

COZ086-089-092>099-191000-
...SOUTHEAST COLORADO...

CITY           SKY/WX    TMP DP  RH WIND       PRES   REMARKS
PUEBLO         FAIR      23  19  85 CALM      30.23F
LA JUNTA       FAIR      23  16  74 W8        30.24S WCI  14
LAMAR          FAIR      16  11  80 CALM      30.23S
SPRINGFIELD      N/A     25  15  66 SW3       30.22F
$$




USA.gov is the U.S. government's official web portal to all federal, state and local government web resources and services.